Location: LDNL
(36.4545°S, 141.6685°E)
Time: 08:56:19
(UTC+11:00)

Courier 1B - Pass Details

Date: 10 February 2023
Orbit: 962 x 1209 km, 28.3° (Epoch: 21 March)

Event Time Altitude Azimuth Distance (km) Brightness Sun altitude
Exits shadow 05:27:09 17° 340° (NNW) 2,670 9.3 -17.3°
Drops below altitude 10° 05:30:54 10° 9° (N) 3,140 9.9 -16.7°
Sets 05:34:58 0° 28° (NNE) 4,098 10.7 -16.0°
